This is the latest recevied weather packets stored in our database for station/object N4BBA. If no packets are shown the sender has not sent any weather packets the latest 10 day(s).
| Time | Temp. | Humidity | Pressure | Rain* | Wind** | Luminosity | Snow |
|---|---|---|---|---|---|---|---|
| 1777840407 | 20° C | 32% | 1015.4 hPa | 0 mm | - | 543 W/m² | - |
| 1777840103 | 20.56° C | 33% | 1015.5 hPa | 0 mm | - | 557 W/m² | - |
| 1777839802 | 20° C | 32% | 1015.6 hPa | 0 mm | - | 572 W/m² | - |
| 1777839499 | 20° C | 33% | 1015.8 hPa | 0 mm | - | 586 W/m² | - |
| 1777839196 | 19.44° C | 33% | 1015.8 hPa | 0 mm | - | 600 W/m² | - |
| 1777838894 | 20° C | 33% | 1015.9 hPa | 0 mm | - | 614 W/m² | - |
| 1777838589 | 20° C | 33% | 1016 hPa | 0 mm | - | 626 W/m² | - |
| 1777838287 | 20° C | 33% | 1016 hPa | 0 mm | - | 640 W/m² | - |
| 1777837983 | 20° C | 33% | 1016.3 hPa | 0 mm | - | 651 W/m² | - |
| 1777837681 | 19.44° C | 34% | 1016.4 hPa | 0 mm | - | 662 W/m² | - |
| 1777837376 | 18.89° C | 33% | 1016.3 hPa | 0 mm | - | 674 W/m² | - |
| 1777837073 | 18.89° C | 34% | 1016.3 hPa | 0 mm | - | 687 W/m² | - |
| 1777836769 | 18.33° C | 33% | 1016.5 hPa | 0 mm | - | 698 W/m² | - |
| 1777836465 | 18.89° C | 33% | 1016.8 hPa | 0 mm | - | 709 W/m² | - |
| 1777836160 | 18.89° C | 33% | 1016.8 hPa | 0 mm | - | 718 W/m² | - |
| 1777835857 | 20° C | 34% | 1016.7 hPa | 0 mm | - | 730 W/m² | - |
| 1777835554 | 18.89° C | 34% | 1016.9 hPa | 0 mm | - | 740 W/m² | - |
| 1777835251 | 18.89° C | 34% | 1016.9 hPa | 0 mm | - | 748 W/m² | - |
| 1777834947 | 18.89° C | 35% | 1017 hPa | 0 mm | - | 755 W/m² | - |
| 1777834645 | 18.33° C | 35% | 1017 hPa | 0 mm | - | 767 W/m² | - |
| 1777834340 | 18.33° C | 35% | 1016.8 hPa | 0 mm | - | 776 W/m² | - |
| 1777834035 | 18.89° C | 35% | 1017 hPa | 0 mm | - | 783 W/m² | - |
| 1777833732 | 18.33° C | 34% | 1016.8 hPa | 0 mm | - | 789 W/m² | - |
| 1777833428 | 18.33° C | 36% | 1017.1 hPa | 0 mm | - | 796 W/m² | - |
| 1777833126 | 18.33° C | 35% | 1017.1 hPa | 0 mm | - | 802 W/m² | - |
* Rain latest hour (hover to see other rain measurements)
** Current wind speed in m/s (hover to see current wind gust speed)